Theta_e
338 343 349 354 363 362 357 358 349 351 351 348 346 346 351 352 350 352 348 348 346 348 348 349 349 351 352 351 350 347 341 341 342 341 340 339 339 335 344 349 353 353 350 348 353 351 348 349 347
343 348 351 361 367 355 358 351 352 351 350 348 349 351 354 357 352 350 350 346 346 349 349 349 349 350 350 351 347 349 345 346 342 342 341 340 342 347 353 354 354 354 353 351 352 350 350 349 347
349 352 354 364 367 359 360 350 349 348 346 345 347 348 353 356 351 350 350 345 344 348 345 348 347 346 348 350 347 348 347 345 347 345 343 345 349 352 354 354 355 354 353 344 340 339 343 347 347
357 351 358 366 364 356 355 352 347 349 347 347 348 354 350 349 349 350 349 348 347 345 350 350 351 348 350 349 349 350 350 349 352 352 353 350 351 353 353 353 352 349 348 344 340 341 344 347 346
355 356 366 366 362 357 355 346 347 349 348 350 349 354 353 348 349 349 350 349 346 348 348 349 349 350 352 350 351 351 350 351 352 352 353 353 354 351 351 353 348 348 343 337 333 337 341 345 348
357 355 366 367 360 355 352 347 348 349 348 347 350 352 350 349 350 350 350 345 341 347 349 349 348 349 349 351 351 351 352 352 353 353 353 353 352 353 351 349 348 342 338 338 338 337 343 344 347
361 362 368 367 361 358 354 347 349 348 348 347 345 352 348 350 349 350 347 343 347 346 348 348 349 351 352 351 351 351 352 352 351 352 351 352 352 351 346 346 345 342 342 344 341 338 340 343 347
353 357 365 364 364 362 352 349 347 348 349 343 342 348 353 349 349 349 347 346 347 346 347 347 350 349 351 350 351 351 351 352 352 352 352 353 353 351 346 346 347 341 341 341 338 341 343 345 345
347 363 362 361 366 363 350 350 347 345 346 344 344 342 346 348 347 349 349 350 348 346 346 348 349 349 348 349 351 349 351 352 352 352 352 351 350 346 344 344 344 341 339 335 337 340 342 343 343
358 361 359 357 357 360 356 349 347 346 347 346 344 346 346 348 348 348 348 347 349 348 346 346 347 348 348 349 349 349 351 349 349 344 344 344 348 343 341 344 343 340 336 337 340 341 342 343 344
357 361 353 355 355 355 358 349 347 347 348 345 346 347 345 346 347 347 346 346 348 347 347 348 348 345 343 346 346 345 343 344 340 342 346 347 349 347 339 344 341 337 338 341 344 346 347 347 348
363 355 355 352 350 357 362 353 348 346 346 343 342 343 344 346 346 346 344 346 348 346 348 349 346 347 347 342 341 344 348 350 347 347 348 348 349 348 339 338 337 339 342 343 345 346 348 347 345
359 358 359 359 359 360 357 354 349 347 344 342 341 342 343 343 342 343 343 347 347 345 346 349 349 348 346 346 346 347 347 349 347 347 349 349 349 346 336 335 336 339 343 345 346 347 349 348 346
353 358 360 359 361 360 356 352 349 346 343 343 342 341 341 341 341 343 344 342 346 343 344 347 348 346 347 348 347 347 348 346 349 347 347 349 349 343 338 341 344 346 347 346 345 349 347 349 347
354 358 360 360 360 362 355 359 350 345 343 344 342 342 341 340 340 343 342 342 344 344 345 346 347 346 343 341 346 348 348 348 347 347 349 348 347 347 345 347 347 345 345 347 345 345 349 348 345
355 358 364 361 359 359 355 363 351 344 343 343 343 342 342 339 341 341 344 346 346 347 348 349 348 348 348 348 347 346 348 349 348 348 347 349 349 349 351 348 346 345 346 346 344 344 347 349 349
346 362 366 361 352 352 360 362 357 347 343 343 343 342 342 339 340 342 345 347 346 348 350 351 351 351 347 349 350 347 350 349 349 349 349 348 348 350 351 347 345 348 347 346 343 346 348 347 346
342 356 364 365 359 354 358 361 355 352 342 342 341 340 341 340 339 342 342 347 349 349 350 350 350 351 350 351 352 351 350 350 353 349 348 348 350 350 351 346 345 345 343 343 349 352 348 347 349
337 338 356 357 356 359 358 357 358 352 342 342 341 338 340 340 339 342 343 347 348 349 347 347 349 349 348 352 353 353 352 352 352 350 345 347 349 350 350 345 347 344 347 354 354 348 349 346 350
331 331 332 348 350 352 354 357 359 350 344 343 341 340 340 340 339 342 343 347 348 348 348 348 347 346 347 348 352 353 353 353 351 347 344 346 349 351 353 352 348 345 350 354 349 348 345 351 351
330 329 333 344 351 352 353 357 360 356 344 342 339 339 340 340 341 340 344 348 348 347 349 350 349 347 348 350 352 353 353 356 353 351 344 347 349 349 353 353 351 345 354 351 348 346 346 349 351
324 328 330 341 349 351 349 357 364 360 356 343 339 340 342 340 340 339 343 348 347 346 346 348 350 349 347 349 350 352 355 355 353 351 347 347 350 347 353 356 352 352 353 351 346 348 348 352 347
317 320 323 331 346 345 345 350 349 360 362 349 342 340 342 340 339 338 341 346 347 347 347 351 351 350 348 351 351 353 353 354 353 352 352 353 352 346 351 355 356 355 355 353 352 351 352 351 352
316 315 316 325 341 349 344 344 343 364 362 357 346 342 343 343 338 337 340 345 347 347 349 351 352 350 349 349 352 353 354 355 354 353 356 356 353 355 351 355 353 354 354 352 352 353 351 350 348
315 312 316 324 334 347 338 340 340 354 357 356 351 348 344 342 340 339 339 344 347 349 351 352 350 350 350 349 353 355 356 351 353 355 354 355 356 356 352 352 350 350 351 349 353 352 350 351 350
314 313 315 328 329 330 331 340 340 342 350 353 352 350 347 342 343 341 339 341 346 349 352 354 352 352 351 349 352 354 355 354 353 353 353 353 354 354 352 349 351 349 346 348 355 353 350 346 349
315 313 312 316 317 325 328 332 330 335 342 352 354 352 350 345 344 344 341 341 347 349 352 352 354 353 352 349 350 353 356 356 355 355 353 353 351 348 348 351 355 352 349 351 351 352 351 347 346
315 314 313 313 322 322 328 332 334 334 348 354 355 354 352 348 345 345 342 343 347 349 351 352 354 354 352 351 349 353 357 354 356 356 353 353 350 350 350 351 353 353 353 352 358 356 356 354 351
319 319 316 311 317 321 324 330 328 332 337 350 354 353 352 350 347 345 344 345 345 349 351 353 353 354 354 351 350 353 355 356 355 352 359 357 355 355 357 355 352 354 354 355 359 359 358 358 358
318 317 315 319 317 322 325 329 328 339 339 341 357 350 352 351 349 345 344 345 346 349 351 353 353 354 354 353 350 350 352 352 355 353 354 357 356 356 358 357 354 355 354 356 357 358 358 358 356
Wind_Speed
9 6 5 3 2 2 3 3 10 8 6 2 9 5 7 9 3 4 19 18 29 26 22 21 20 19 19 19 20 20 24 24 24 24 24 23 24 25 22 19 18 17 17 18 16 17 18 18 17
8 6 4 1 2 3 2 10 17 14 16 19 15 14 12 6 9 15 15 28 29 27 23 22 20 18 18 19 19 20 22 23 23 24 23 20 18 18 17 17 17 16 17 17 16 16 16 15 16
5 4 1 1 1 1 5 13 17 16 14 11 7 12 5 7 16 10 26 28 28 26 24 21 20 19 17 18 18 19 21 23 22 23 24 20 18 17 17 18 16 15 15 16 16 16 16 15 14
2 4 2 3 2 4 7 12 20 18 14 14 14 9 6 13 8 20 31 30 27 26 23 21 20 18 17 18 19 20 21 22 22 22 21 20 19 18 17 16 15 14 14 13 14 15 16 13 12
4 3 3 1 2 6 10 19 18 14 9 16 12 12 6 17 33 35 32 28 28 26 22 20 19 19 19 20 20 20 21 21 22 21 20 19 18 18 17 16 14 14 13 12 12 14 16 15 15
4 2 3 2 5 6 8 17 17 18 15 17 18 15 5 29 32 31 31 28 28 27 23 20 18 19 20 21 21 20 20 20 20 20 19 18 17 17 17 16 13 13 13 12 12 15 18 16 15
6 2 4 6 5 10 11 16 16 19 18 10 14 13 9 20 28 30 28 28 28 26 23 20 18 19 19 20 20 20 19 19 19 19 19 18 17 17 16 15 14 13 12 11 12 15 15 13 13
3 3 4 7 5 3 17 16 18 19 9 18 19 8 16 20 29 30 29 28 27 24 23 22 20 20 20 19 18 19 18 18 18 19 18 17 16 16 16 15 13 12 11 10 13 14 14 13 13
7 3 4 8 7 12 21 19 11 9 22 13 3 13 25 33 31 29 25 24 25 23 24 23 21 21 21 19 18 18 17 17 17 16 16 17 16 16 16 14 13 11 10 11 12 11 11 11 8
4 2 4 4 9 8 12 22 17 12 15 16 15 20 35 36 32 27 23 20 22 26 25 24 22 21 21 20 18 17 17 17 17 17 17 17 16 14 15 14 11 9 10 13 11 9 8 8 6
5 5 7 10 17 14 11 14 12 20 17 22 23 25 23 29 26 27 24 29 29 29 28 25 24 21 20 19 18 17 17 17 16 18 19 16 13 13 13 14 12 13 12 8 5 1 3 3 3
7 7 4 9 8 7 8 8 16 18 12 20 19 24 24 20 21 26 25 23 27 28 29 25 22 21 18 20 17 17 17 15 16 16 15 15 17 12 12 14 14 13 8 4 0 3 5 7 5
6 15 10 9 15 18 18 4 10 16 21 18 16 18 20 18 22 26 29 30 32 27 29 28 26 24 21 21 18 16 15 16 16 18 17 16 15 11 14 15 14 10 6 2 2 2 6 4 5
7 13 11 12 18 17 10 12 9 16 20 18 16 12 14 16 18 22 23 28 28 28 30 30 28 23 22 20 18 16 16 17 18 20 19 17 17 13 15 16 12 8 5 4 4 4 3 5 5
4 6 10 11 7 3 11 5 14 20 21 20 16 14 12 13 22 23 25 28 31 34 32 33 30 22 19 14 18 18 15 16 20 20 20 20 19 16 15 12 10 8 6 7 5 3 5 8 3
1 4 3 3 7 7 6 4 11 19 20 18 19 15 12 10 20 25 30 33 37 36 34 33 28 23 18 16 17 18 18 17 20 20 22 21 18 17 13 12 13 10 9 6 6 6 6 9 11
1 3 2 2 12 3 2 3 9 15 18 17 17 15 13 9 17 26 30 36 40 38 34 31 28 24 22 17 15 18 19 19 20 20 21 20 21 18 12 15 13 12 10 9 7 9 11 6 6
3 4 4 7 10 10 10 6 13 14 17 18 15 11 14 15 15 28 31 36 40 39 35 28 28 25 22 20 16 17 19 22 21 20 20 23 20 14 10 15 14 11 10 9 10 8 4 4 8
10 10 10 7 10 10 19 11 16 12 16 17 15 8 14 16 16 30 32 36 37 39 33 28 27 24 25 24 20 20 21 25 23 22 22 24 21 16 13 17 14 12 11 8 9 7 2 4 8
10 7 9 9 10 10 8 12 13 17 21 21 20 12 15 16 14 22 28 32 35 37 36 33 28 27 27 23 20 17 19 26 24 23 26 26 21 16 13 15 17 15 13 13 11 8 3 6 5
15 4 6 7 4 11 8 6 9 16 14 16 17 15 14 20 19 17 25 31 33 35 38 35 34 29 28 25 21 15 20 23 28 25 26 27 22 17 14 14 15 15 13 14 11 8 7 3 4
9 13 10 6 3 5 7 5 6 17 18 19 17 16 15 19 21 18 24 29 34 36 39 35 37 33 29 27 23 19 21 22 27 30 27 27 23 19 16 10 13 13 11 11 11 9 6 3 3
10 16 12 10 6 1 2 1 8 14 19 16 22 21 18 21 23 22 24 35 36 37 36 35 38 38 31 29 25 21 25 26 31 30 29 25 22 22 18 14 13 15 12 10 11 8 7 6 2
12 12 12 4 4 4 8 7 11 10 27 23 23 22 23 21 25 23 33 37 35 37 36 39 37 41 35 30 27 24 25 30 29 30 29 27 25 24 22 17 17 16 14 12 11 10 10 11 10
3 6 5 4 1 6 11 8 11 18 22 26 29 28 26 22 24 23 22 29 34 36 36 38 41 40 38 35 31 23 26 29 31 31 31 30 28 27 25 23 20 21 19 17 14 14 14 15 15
12 8 5 5 3 7 6 7 14 12 17 25 29 31 24 24 23 24 24 32 36 38 37 37 38 39 40 38 36 29 26 28 27 26 34 31 33 32 29 27 23 21 20 19 17 16 17 17 18
9 3 9 5 6 5 8 8 11 8 9 22 25 23 25 25 22 25 26 34 36 37 39 39 40 40 41 39 39 31 26 22 24 18 35 35 36 31 29 27 27 27 20 20 20 18 16 16 15
1 6 4 2 5 12 5 6 6 7 6 19 23 24 24 24 20 23 22 34 37 40 41 40 41 41 42 42 42 36 30 26 22 17 28 33 36 30 28 31 29 28 23 21 20 19 15 14 16
10 7 5 4 6 9 11 9 8 9 4 13 15 21 25 24 24 23 23 35 38 39 38 39 38 38 38 43 43 38 34 26 25 24 19 27 25 26 26 29 33 30 26 23 21 21 19 18 16
8 3 2 5 9 6 4 9 8 7 10 9 10 15 18 21 25 22 22 33 32 36 36 39 38 37 38 41 42 43 40 35 30 29 26 20 19 20 16 17 30 30 26 24 24 23 22 22 21
Wind_Direction
172 167 148 211 26 54 46 85 113 75 83 41 137 140 101 43 116 156 142 157 142 139 139 135 133 125 122 117 117 118 121 120 122 121 119 118 111 117 120 112 107 107 109 109 109 112 111 110 107
163 161 223 281 45 33 19 125 89 97 109 97 79 77 50 79 68 112 118 146 143 138 138 135 135 130 123 118 118 117 120 123 125 126 126 124 120 122 116 115 114 110 107 113 117 118 116 111 98
198 197 96 44 104 116 127 116 122 121 130 119 99 80 81 101 114 132 144 147 143 140 137 136 136 132 126 122 126 123 119 125 127 128 126 129 127 122 121 117 116 119 116 119 121 119 113 108 103
215 349 60 11 303 20 141 133 117 110 95 89 117 73 57 110 103 133 143 144 144 142 142 142 138 136 130 127 126 125 125 126 128 127 129 131 130 127 124 120 122 125 122 126 132 132 126 127 111
64 53 6 285 209 133 120 127 130 109 71 94 106 113 85 112 131 137 143 146 145 149 145 141 139 138 134 133 129 128 127 127 127 127 128 131 130 127 125 126 126 129 130 123 123 128 138 122 114
62 33 6 260 167 149 112 121 107 94 106 102 107 112 104 135 134 140 147 147 145 144 143 142 141 140 138 134 134 131 130 129 128 128 130 132 131 130 126 127 127 129 124 121 121 127 134 125 108
69 36 311 297 117 112 131 124 120 119 125 114 125 117 125 141 140 142 145 144 142 141 141 142 140 136 137 138 136 136 136 132 130 129 133 131 132 131 131 135 135 135 131 124 125 132 134 124 119
84 120 295 16 39 18 144 125 130 139 121 134 133 148 150 153 145 140 140 141 141 141 142 143 142 145 142 140 141 139 137 135 134 133 134 133 134 137 146 146 146 140 133 127 131 138 138 137 133
158 34 321 9 322 313 134 130 132 125 135 154 166 129 149 148 140 133 134 140 141 143 147 149 153 152 150 147 144 143 139 139 138 139 141 142 141 145 152 148 147 141 131 128 136 139 136 139 132
96 155 234 194 267 279 313 130 128 136 147 119 121 120 139 139 145 142 146 154 153 154 156 157 156 154 152 151 154 150 148 151 152 149 149 141 142 138 149 150 146 144 137 129 130 132 149 158 160
144 206 193 242 246 249 284 147 139 134 145 149 142 144 149 151 152 148 162 164 166 159 160 163 159 156 157 158 158 159 154 150 154 154 150 151 156 159 154 155 152 146 142 146 149 168 323 333 278
118 146 168 278 262 268 247 147 152 144 158 150 147 149 152 159 161 160 169 167 167 167 164 165 160 161 162 156 156 161 162 168 168 170 173 183 174 166 164 156 153 155 162 164 15 333 338 329 336
143 157 178 270 272 263 265 93 120 131 143 149 148 149 159 165 168 167 166 167 171 172 169 168 170 173 175 166 163 168 171 178 186 176 169 176 174 173 164 159 159 164 170 198 284 323 322 341 35
112 171 170 193 256 249 159 109 114 147 147 151 156 165 163 167 167 167 160 164 169 176 176 172 177 177 177 174 172 175 168 166 168 174 173 178 181 173 164 162 166 175 179 195 199 265 291 307 308
95 122 115 20 319 71 97 69 146 154 156 156 167 180 173 175 156 177 164 159 162 160 174 180 173 169 170 166 174 173 169 169 173 173 173 179 185 178 175 171 174 158 195 201 210 249 282 318 258
61 55 80 159 300 228 64 205 152 163 161 166 173 184 188 168 168 164 156 157 156 157 160 164 167 162 166 166 170 175 172 176 165 168 174 183 192 191 198 193 184 192 211 217 236 265 286 298 273
335 152 148 56 288 294 209 153 189 174 170 174 183 183 185 167 162 164 156 154 160 163 165 164 168 165 167 162 163 180 175 181 177 175 176 183 184 190 204 191 199 207 220 248 261 280 292 293 248
319 5 173 159 236 221 267 229 190 177 176 177 189 194 180 171 172 166 157 160 164 167 169 173 175 173 174 173 180 187 186 182 181 180 183 179 187 194 204 194 205 221 241 235 272 261 238 297 316
267 278 243 229 207 172 217 230 189 184 181 182 191 195 180 176 174 168 166 164 166 169 171 173 176 178 179 181 182 176 184 188 192 192 184 186 192 194 202 208 214 209 215 253 242 219 234 285 317
281 283 276 245 207 197 183 215 186 188 190 187 190 194 184 174 167 168 164 164 169 174 176 178 181 184 189 193 184 182 193 197 197 194 187 192 193 198 212 223 215 213 229 225 226 228 240 329 340
287 214 269 270 232 198 157 227 197 209 188 197 199 197 186 175 173 169 168 169 173 177 179 181 186 188 197 199 195 195 189 199 199 200 196 195 197 206 206 208 219 217 223 206 226 233 224 296 320
305 294 273 232 131 215 160 261 223 203 204 198 199 198 192 180 178 174 170 172 176 181 183 184 187 190 197 200 203 195 177 171 191 197 198 197 200 205 204 221 211 214 213 231 237 227 209 247 312
273 292 302 279 211 111 299 180 247 197 215 199 203 201 199 184 180 181 175 176 180 180 182 186 189 192 199 202 202 202 194 192 190 197 199 199 199 201 205 203 192 199 212 235 233 230 227 244 266
290 310 320 299 171 211 241 193 255 185 210 205 201 202 202 186 186 184 180 178 179 180 182 186 190 193 201 204 203 206 200 195 196 200 203 206 205 203 206 205 212 214 216 207 215 233 241 246 253
110 45 322 329 260 225 233 232 237 200 214 204 196 201 198 188 186 186 179 180 179 181 182 186 190 195 201 205 207 215 219 208 208 204 205 207 209 208 210 217 220 225 227 219 214 229 244 252 258
282 157 175 288 296 287 256 230 260 195 213 209 198 198 192 191 187 187 183 182 182 183 183 183 187 194 203 208 208 212 218 214 210 215 210 211 212 214 220 214 219 222 225 220 221 233 247 250 257
302 213 205 224 244 284 250 281 293 251 248 200 196 193 190 192 185 189 186 183 185 184 185 185 188 195 202 207 208 212 215 202 208 222 215 214 217 217 216 219 227 227 225 224 227 235 244 244 253
221 273 342 347 252 265 254 254 235 311 195 197 191 194 195 195 185 187 186 186 186 187 188 188 191 193 200 205 210 212 215 209 203 210 212 218 220 220 219 227 227 221 226 232 237 239 245 252 255
333 324 329 273 182 245 276 267 212 251 218 172 215 205 195 191 191 187 187 188 187 187 187 191 191 193 196 202 207 212 216 217 214 212 209 215 225 228 231 234 224 220 226 233 236 240 245 250 261
223 67 81 347 308 287 214 259 281 189 152 141 79 230 219 199 192 187 186 187 184 185 187 191 192 193 197 199 204 211 217 219 217 216 218 213 212 215 220 228 216 218 228 235 233 237 242 249 257